owner,sensor,date,latitude,longitude,vertical_datum,sea_water_temperature,qcFlag
Murphy,ioos:station:wmo:42877:1,2022-10-01T10:26:00Z,27.3780,-94.4600,9.4,29.0,11111222
Murphy,ioos:station:wmo:42877:1,2022-10-01T10:36:00Z,27.3780,-94.4600,9.5,29.0,11111222
Murphy,ioos:station:wmo:42877:1,2022-10-01T10:46:00Z,27.3780,-94.4600,9.5,29.0,11111222
Murphy,ioos:station:wmo:42877:1,2022-10-01T10:56:00Z,27.3780,-94.4600,9.5,29.0,11111222
Murphy,ioos:station:wmo:42877:1,2022-10-01T11:06:00Z,27.3780,-94.4600,9.6,29.0,11111222
Murphy,ioos:station:wmo:42877:1,2022-10-01T11:16:00Z,27.3780,-94.4600,9.7,29.0,11111222
Murphy,ioos:station:wmo:42877:1,2022-10-01T11:26:00Z,27.3780,-94.4600,9.8,29.0,11111222
Murphy,ioos:station:wmo:42877:1,2022-10-01T11:36:00Z,27.3780,-94.4600,9.9,29.0,11111222
Murphy,ioos:station:wmo:42877:1,2022-10-01T11:46:00Z,27.3780,-94.4600,9.6,29.0,11111222
Murphy,ioos:station:wmo:42877:1,2022-10-01T11:56:00Z,27.3780,-94.4600,9.6,29.0,11111222
Murphy,ioos:station:wmo:42877:1,2022-10-01T12:06:00Z,27.3780,-94.4600,9.6,29.0,11111222
Murphy,ioos:station:wmo:42877:1,2022-10-01T12:16:00Z,27.3780,-94.4600,9.7,29.0,11111222
Murphy,ioos:station:wmo:42877:1,2022-10-01T12:26:00Z,27.3780,-94.4600,9.6,29.0,11111222
Murphy,ioos:station:wmo:42877:1,2022-10-01T12:36:00Z,27.3780,-94.4600,9.4,29.0,11111222
Murphy,ioos:station:wmo:42877:1,2022-10-01T12:46:00Z,27.3780,-94.4600,9.3,29.0,11111222
Murphy,ioos:station:wmo:42877:1,2022-10-01T12:56:00Z,27.3780,-94.4600,9.4,29.0,11111222
Murphy,ioos:station:wmo:42877:1,2022-10-01T13:06:00Z,27.3780,-94.4600,9.5,29.0,11111222
Murphy,ioos:station:wmo:42877:1,2022-10-01T13:16:00Z,27.3780,-94.4600,9.4,29.0,11111222
Murphy,ioos:station:wmo:42877:1,2022-10-01T13:27:00Z,27.3780,-94.4600,9.4,29.0,11111222
Murphy,ioos:station:wmo:42877:1,2022-10-01T13:37:00Z,27.3780,-94.4600,9.4,29.0,11111222
Murphy,ioos:station:wmo:42877:1,2022-10-01T13:47:00Z,27.3780,-94.4600,9.4,29.1,11111222
Murphy,ioos:station:wmo:42877:1,2022-10-01T13:57:00Z,27.3780,-94.4600,9.4,29.1,11111222
Murphy,ioos:station:wmo:42877:1,2022-10-01T14:07:00Z,27.3780,-94.4600,9.4,29.1,11111222
Murphy,ioos:station:wmo:42877:1,2022-10-01T14:17:00Z,27.3780,-94.4600,9.7,29.1,11111222
Murphy,ioos:station:wmo:42877:1,2022-10-01T14:27:00Z,27.3780,-94.4600,9.7,29.1,11111222
Murphy,ioos:station:wmo:42877:1,2022-10-01T14:37:00Z,27.3780,-94.4600,9.7,29.1,11111222
Murphy,ioos:station:wmo:42877:1,2022-10-01T14:47:00Z,27.3780,-94.4600,9.5,29.1,11111222
Murphy,ioos:station:wmo:42877:1,2022-10-01T14:57:00Z,27.3780,-94.4600,9.4,29.1,11111222
Murphy,ioos:station:wmo:42877:1,2022-10-01T15:07:00Z,27.3780,-94.4600,9.4,29.1,11111222
Murphy,ioos:station:wmo:42877:1,2022-10-01T15:17:00Z,27.3780,-94.4600,9.6,29.1,11111222
Murphy,ioos:station:wmo:42877:1,2022-10-01T15:27:00Z,27.3780,-94.4600,9.7,29.0,11111222
Murphy,ioos:station:wmo:42877:1,2022-10-01T15:37:00Z,27.3780,-94.4600,9.6,29.1,11111222
Murphy,ioos:station:wmo:42877:1,2022-10-01T15:47:00Z,27.3780,-94.4600,9.6,29.1,11111222
Murphy,ioos:station:wmo:42877:1,2022-10-01T15:57:00Z,27.3780,-94.4600,9.6,29.1,11111222
Murphy,ioos:station:wmo:42877:1,2022-10-01T16:07:00Z,27.3780,-94.4600,9.6,29.1,11111222
Murphy,ioos:station:wmo:42877:1,2022-10-01T16:17:00Z,27.3780,-94.4600,9.6,29.1,11111222
Murphy,ioos:station:wmo:42877:1,2022-10-01T16:27:00Z,27.3780,-94.4600,9.6,29.1,11111222
Murphy,ioos:station:wmo:42877:1,2022-10-01T16:37:00Z,27.3780,-94.4600,9.6,29.1,11111222
Murphy,ioos:station:wmo:42877:1,2022-10-01T16:47:00Z,27.3780,-94.4600,9.6,29.1,11111222
Murphy,ioos:station:wmo:42877:1,2022-10-01T16:57:00Z,27.3780,-94.4600,9.6,29.1,11111222
Murphy,ioos:station:wmo:42877:1,2022-10-01T17:07:00Z,27.3780,-94.4600,9.6,29.1,11111222
Murphy,ioos:station:wmo:42877:1,2022-10-01T17:17:00Z,27.3780,-94.4600,9.6,29.1,11111222
Murphy,ioos:station:wmo:42877:1,2022-10-01T17:27:00Z,27.3780,-94.4600,9.6,29.1,11111222
Murphy,ioos:station:wmo:42877:1,2022-10-01T17:37:00Z,27.3780,-94.4600,9.6,29.1,11111222
Murphy,ioos:station:wmo:42877:1,2022-10-01T17:47:00Z,27.3780,-94.4600,9.7,29.1,11111222
Murphy,ioos:station:wmo:42877:1,2022-10-01T17:57:00Z,27.3780,-94.4600,9.7,29.1,11111222
Murphy,ioos:station:wmo:42877:1,2022-10-01T18:07:00Z,27.3780,-94.4600,9.6,29.1,11111222
Murphy,ioos:station:wmo:42877:1,2022-10-01T18:17:00Z,27.3780,-94.4600,9.5,29.1,11111222
Murphy,ioos:station:wmo:42877:1,2022-10-01T18:27:00Z,27.3780,-94.4600,9.5,29.1,11111222
Murphy,ioos:station:wmo:42877:1,2022-10-01T18:37:00Z,27.3780,-94.4600,9.6,29.1,11111222
Murphy,ioos:station:wmo:42877:1,2022-10-01T18:47:00Z,27.3780,-94.4600,9.6,29.1,11111222
Murphy,ioos:station:wmo:42877:1,2022-10-01T18:57:00Z,27.3780,-94.4600,9.6,29.1,11111222
Murphy,ioos:station:wmo:42877:1,2022-10-01T19:07:00Z,27.3780,-94.4600,9.6,29.1,11111222
Murphy,ioos:station:wmo:42877:1,2022-10-01T19:17:00Z,27.3780,-94.4600,9.6,29.1,11111222
Murphy,ioos:station:wmo:42877:1,2022-10-01T19:27:00Z,27.3780,-94.4600,9.6,29.1,11111222
Murphy,ioos:station:wmo:42877:1,2022-10-01T19:37:00Z,27.3780,-94.4600,9.6,29.1,11111222
Murphy,ioos:station:wmo:42877:1,2022-10-01T19:47:00Z,27.3780,-94.4600,9.6,29.2,11111222
Murphy,ioos:station:wmo:42877:1,2022-10-01T19:57:00Z,27.3780,-94.4600,9.6,29.2,11111222
Murphy,ioos:station:wmo:42877:1,2022-10-01T20:07:00Z,27.3780,-94.4600,9.6,29.2,11111222
Murphy,ioos:station:wmo:42877:1,2022-10-01T20:17:00Z,27.3780,-94.4600,9.6,29.2,11111222
Murphy,ioos:station:wmo:42877:1,2022-10-01T20:27:00Z,27.3780,-94.4600,9.6,29.2,11111222
Murphy,ioos:station:wmo:42877:1,2022-10-01T20:38:00Z,27.3780,-94.4600,9.6,29.2,11111222
Murphy,ioos:station:wmo:42877:1,2022-10-01T20:48:00Z,27.3780,-94.4600,9.6,29.2,11111222
Murphy,ioos:station:wmo:42877:1,2022-10-01T20:58:00Z,27.3780,-94.4600,9.6,29.2,11111222
Murphy,ioos:station:wmo:42877:1,2022-10-01T21:08:00Z,27.3780,-94.4600,9.6,29.2,11111222
Murphy,ioos:station:wmo:42877:1,2022-10-01T21:18:00Z,27.3780,-94.4600,9.8,29.2,11111222
Murphy,ioos:station:wmo:42877:1,2022-10-01T21:28:00Z,27.3780,-94.4600,9.8,29.2,11111222
Murphy,ioos:station:wmo:42877:1,2022-10-01T21:38:00Z,27.3780,-94.4600,9.8,29.2,11111222
Murphy,ioos:station:wmo:42877:1,2022-10-01T21:48:00Z,27.3780,-94.4600,9.7,29.1,11111222
Murphy,ioos:station:wmo:42877:1,2022-10-01T21:58:00Z,27.3780,-94.4600,9.7,29.1,11111222
Murphy,ioos:station:wmo:42877:1,2022-10-01T22:08:00Z,27.3780,-94.4600,9.7,29.1,11111222
Murphy,ioos:station:wmo:42877:1,2022-10-01T22:18:00Z,27.3780,-94.4600,9.7,29.1,11111222
Murphy,ioos:station:wmo:42877:1,2022-10-01T22:28:00Z,27.3780,-94.4600,9.7,29.1,11111222
Murphy,ioos:station:wmo:42877:1,2022-10-01T22:38:00Z,27.3780,-94.4600,9.7,29.1,11111222
Murphy,ioos:station:wmo:42877:1,2022-10-01T22:48:00Z,27.3780,-94.4600,9.6,29.1,11111222
Murphy,ioos:station:wmo:42877:1,2022-10-01T22:58:00Z,27.3780,-94.4600,9.5,29.2,11111222
Murphy,ioos:station:wmo:42877:1,2022-10-01T23:08:00Z,27.3780,-94.4600,9.5,29.2,11111222
Murphy,ioos:station:wmo:42877:1,2022-10-01T23:18:00Z,27.3780,-94.4600,9.5,29.2,11111222
Murphy,ioos:station:wmo:42877:1,2022-10-01T23:28:00Z,27.3780,-94.4600,9.5,29.2,11111222
Murphy,ioos:station:wmo:42877:1,2022-10-01T23:38:00Z,27.3780,-94.4600,9.5,29.2,11111222
Murphy,ioos:station:wmo:42877:1,2022-10-01T23:48:00Z,27.3780,-94.4600,9.5,29.2,11111222
Murphy,ioos:station:wmo:42877:1,2022-10-01T23:58:00Z,27.3780,-94.4600,9.5,29.2,11111222
Murphy,ioos:station:wmo:42877:1,2022-10-02T00:08:00Z,27.3780,-94.4600,9.6,29.2,11111222
Murphy,ioos:station:wmo:42877:1,2022-10-02T00:18:00Z,27.3780,-94.4600,9.7,29.2,11111222
Murphy,ioos:station:wmo:42877:1,2022-10-02T00:28:00Z,27.3780,-94.4600,9.7,29.2,11111222
Murphy,ioos:station:wmo:42877:1,2022-10-02T00:38:00Z,27.3780,-94.4600,9.6,29.2,11111222
Murphy,ioos:station:wmo:42877:1,2022-10-02T00:48:00Z,27.3780,-94.4600,9.5,29.2,11111222
Murphy,ioos:station:wmo:42877:1,2022-10-02T00:58:00Z,27.3780,-94.4600,9.5,29.2,11111222
Murphy,ioos:station:wmo:42877:1,2022-10-02T01:08:00Z,27.3780,-94.4600,9.5,29.2,11111222
Murphy,ioos:station:wmo:42877:1,2022-10-02T01:18:00Z,27.3780,-94.4600,9.5,29.2,11111222
Murphy,ioos:station:wmo:42877:1,2022-10-02T01:28:00Z,27.3780,-94.4600,9.5,29.2,11111222
Murphy,ioos:station:wmo:42877:1,2022-10-02T01:38:00Z,27.3780,-94.4600,9.5,29.2,11111222
Murphy,ioos:station:wmo:42877:1,2022-10-02T01:48:00Z,27.3780,-94.4600,9.6,29.2,11111222
Murphy,ioos:station:wmo:42877:1,2022-10-02T01:58:00Z,27.3780,-94.4600,9.6,29.2,11111222
Murphy,ioos:station:wmo:42877:1,2022-10-02T02:08:00Z,27.3780,-94.4600,9.6,29.2,11111222
Murphy,ioos:station:wmo:42877:1,2022-10-02T02:18:00Z,27.3780,-94.4600,9.6,29.2,11111222
Murphy,ioos:station:wmo:42877:1,2022-10-02T02:28:00Z,27.3780,-94.4600,9.6,29.2,11111222
Murphy,ioos:station:wmo:42877:1,2022-10-02T02:38:00Z,27.3780,-94.4600,9.6,29.2,11111222
Murphy,ioos:station:wmo:42877:1,2022-10-02T02:48:00Z,27.3780,-94.4600,9.6,29.2,11111222
Murphy,ioos:station:wmo:42877:1,2022-10-02T02:58:00Z,27.3780,-94.4600,9.6,29.1,11111222
Murphy,ioos:station:wmo:42877:1,2022-10-02T03:08:00Z,27.3780,-94.4600,9.6,29.1,11111222
Murphy,ioos:station:wmo:42877:1,2022-10-02T03:18:00Z,27.3780,-94.4600,9.6,29.1,11111222
Murphy,ioos:station:wmo:42877:1,2022-10-02T03:28:00Z,27.3780,-94.4600,9.6,29.1,11111222
Murphy,ioos:station:wmo:42877:1,2022-10-02T03:38:00Z,27.3780,-94.4600,9.6,29.1,11111222
Murphy,ioos:station:wmo:42877:1,2022-10-02T03:48:00Z,27.3780,-94.4600,9.6,29.1,11111222
Murphy,ioos:station:wmo:42877:1,2022-10-02T03:59:00Z,27.3780,-94.4600,9.6,29.1,11111222
Murphy,ioos:station:wmo:42877:1,2022-10-02T04:09:00Z,27.3780,-94.4600,9.6,29.1,11111222
Murphy,ioos:station:wmo:42877:1,2022-10-02T04:19:00Z,27.3780,-94.4600,9.6,29.1,11111222
Murphy,ioos:station:wmo:42877:1,2022-10-02T04:29:00Z,27.3780,-94.4600,9.6,29.1,11111222
Murphy,ioos:station:wmo:42877:1,2022-10-02T04:39:00Z,27.3780,-94.4600,9.6,29.1,11111222
Murphy,ioos:station:wmo:42877:1,2022-10-02T04:49:00Z,27.3780,-94.4600,9.6,29.1,11111222
Murphy,ioos:station:wmo:42877:1,2022-10-02T04:59:00Z,27.3780,-94.4600,9.6,29.1,11111222
Murphy,ioos:station:wmo:42877:1,2022-10-02T05:09:00Z,27.3780,-94.4600,9.6,29.1,11111222
Murphy,ioos:station:wmo:42877:1,2022-10-02T05:19:00Z,27.3780,-94.4600,9.6,29.1,11111222
Murphy,ioos:station:wmo:42877:1,2022-10-02T05:29:00Z,27.3780,-94.4600,9.7,29.1,11111222
Murphy,ioos:station:wmo:42877:1,2022-10-02T05:39:00Z,27.3780,-94.4600,9.6,29.1,11111222
Murphy,ioos:station:wmo:42877:1,2022-10-02T05:49:00Z,27.3780,-94.4600,9.6,29.1,11111222
Murphy,ioos:station:wmo:42877:1,2022-10-02T05:59:00Z,27.3780,-94.4600,9.7,29.1,11111222
Murphy,ioos:station:wmo:42877:1,2022-10-02T06:09:00Z,27.3780,-94.4600,9.7,29.1,11111222
Murphy,ioos:station:wmo:42877:1,2022-10-02T06:19:00Z,27.3780,-94.4600,9.7,29.1,11111222
Murphy,ioos:station:wmo:42877:1,2022-10-02T06:29:00Z,27.3780,-94.4600,9.6,29.1,11111222
Murphy,ioos:station:wmo:42877:1,2022-10-02T06:39:00Z,27.3780,-94.4600,9.6,29.2,11111222
Murphy,ioos:station:wmo:42877:1,2022-10-02T06:49:00Z,27.3780,-94.4600,9.6,29.2,11111222
Murphy,ioos:station:wmo:42877:1,2022-10-02T06:59:00Z,27.3780,-94.4600,9.6,29.2,11111222
Murphy,ioos:station:wmo:42877:1,2022-10-02T07:09:00Z,27.3780,-94.4600,9.6,29.2,11111222
Murphy,ioos:station:wmo:42877:1,2022-10-02T07:19:00Z,27.3780,-94.4600,9.6,29.2,11111222
Murphy,ioos:station:wmo:42877:1,2022-10-02T07:29:00Z,27.3780,-94.4600,9.6,29.2,11111222
Murphy,ioos:station:wmo:42877:1,2022-10-02T07:39:00Z,27.3780,-94.4600,9.6,29.2,11111222
Murphy,ioos:station:wmo:42877:1,2022-10-02T07:49:00Z,27.3780,-94.4600,9.6,29.1,11111222
Murphy,ioos:station:wmo:42877:1,2022-10-02T07:59:00Z,27.3780,-94.4600,9.6,29.1,11111222
Murphy,ioos:station:wmo:42877:1,2022-10-02T08:09:00Z,27.3780,-94.4600,9.6,29.1,11111222
Murphy,ioos:station:wmo:42877:1,2022-10-02T08:19:00Z,27.3780,-94.4600,9.7,29.1,11111222
Murphy,ioos:station:wmo:42877:1,2022-10-02T08:29:00Z,27.3780,-94.4600,9.7,29.1,11111222
Murphy,ioos:station:wmo:42877:1,2022-10-02T08:39:00Z,27.3780,-94.4600,9.6,29.1,11111222
Murphy,ioos:station:wmo:42877:1,2022-10-02T08:49:00Z,27.3780,-94.4600,9.7,29.1,11111222
Murphy,ioos:station:wmo:42877:1,2022-10-02T08:59:00Z,27.3780,-94.4600,9.7,29.1,11111222
Murphy,ioos:station:wmo:42877:1,2022-10-02T09:09:00Z,27.3780,-94.4600,9.7,29.1,11111222
Murphy,ioos:station:wmo:42877:1,2022-10-02T09:19:00Z,27.3780,-94.4600,9.7,29.1,11111222
Murphy,ioos:station:wmo:42877:1,2022-10-02T09:29:00Z,27.3780,-94.4600,9.7,29.1,11111222
Murphy,ioos:station:wmo:42877:1,2022-10-02T09:39:00Z,27.3780,-94.4600,9.7,29.1,11111222
Murphy,ioos:station:wmo:42877:1,2022-10-02T09:49:00Z,27.3780,-94.4600,9.7,29.1,11111222
Murphy,ioos:station:wmo:42877:1,2022-10-02T09:59:00Z,27.3780,-94.4600,9.7,29.1,11111222
Murphy,ioos:station:wmo:42877:1,2022-10-02T10:09:00Z,27.3780,-94.4600,9.7,29.1,11111222
Murphy,ioos:station:wmo:42877:1,2022-10-02T10:19:00Z,27.3780,-94.4600,9.7,29.1,11111222
Murphy,ioos:station:wmo:42877:1,2022-10-02T10:29:00Z,27.3780,-94.4600,9.7,29.1,11111222
Murphy,ioos:station:wmo:42877:1,2022-10-02T10:39:00Z,27.3780,-94.4600,9.8,29.1,11111222
Murphy,ioos:station:wmo:42877:1,2022-10-02T10:49:00Z,27.3780,-94.4600,9.7,29.1,11111222
Murphy,ioos:station:wmo:42877:1,2022-10-02T10:59:00Z,27.3780,-94.4600,9.7,29.1,11111222
Murphy,ioos:station:wmo:42877:1,2022-10-02T11:09:00Z,27.3780,-94.4600,9.7,29.1,11111222
Murphy,ioos:station:wmo:42877:1,2022-10-02T11:20:00Z,27.3780,-94.4600,9.7,29.1,11111222
Murphy,ioos:station:wmo:42877:1,2022-10-02T11:30:00Z,27.3780,-94.4600,9.7,29.1,11111222
Murphy,ioos:station:wmo:42877:1,2022-10-02T11:40:00Z,27.3780,-94.4600,9.7,29.1,11111222
Murphy,ioos:station:wmo:42877:1,2022-10-02T11:50:00Z,27.3780,-94.4600,9.6,29.1,11111222
Murphy,ioos:station:wmo:42877:1,2022-10-02T12:00:00Z,27.3780,-94.4600,9.6,29.1,11111222
Murphy,ioos:station:wmo:42877:1,2022-10-02T12:10:00Z,27.3780,-94.4600,9.6,29.1,11111222
Murphy,ioos:station:wmo:42877:1,2022-10-02T12:20:00Z,27.3780,-94.4600,9.6,29.1,11111222
Murphy,ioos:station:wmo:42877:1,2022-10-02T12:30:00Z,27.3780,-94.4600,9.7,29.1,11111222
Murphy,ioos:station:wmo:42877:1,2022-10-02T12:40:00Z,27.3780,-94.4600,9.7,29.1,11111222
Murphy,ioos:station:wmo:42877:1,2022-10-02T12:50:00Z,27.3780,-94.4600,9.7,29.1,11111222
Murphy,ioos:station:wmo:42877:1,2022-10-02T13:00:00Z,27.3780,-94.4600,9.7,29.1,11111222
Murphy,ioos:station:wmo:42877:1,2022-10-02T13:10:00Z,27.3780,-94.4600,9.7,29.2,11111222
Murphy,ioos:station:wmo:42877:1,2022-10-02T13:20:00Z,27.3780,-94.4600,9.7,29.2,11111222
Murphy,ioos:station:wmo:42877:1,2022-10-02T13:30:00Z,27.3780,-94.4600,9.9,29.2,11111222
Murphy,ioos:station:wmo:42877:1,2022-10-02T13:40:00Z,27.3780,-94.4600,9.9,29.2,11111222
Murphy,ioos:station:wmo:42877:1,2022-10-02T13:50:00Z,27.3780,-94.4600,9.6,29.2,11111222
Murphy,ioos:station:wmo:42877:1,2022-10-02T14:00:00Z,27.3780,-94.4600,9.6,29.2,11111222
Murphy,ioos:station:wmo:42877:1,2022-10-02T14:10:00Z,27.3780,-94.4600,9.8,29.2,11111222
Murphy,ioos:station:wmo:42877:1,2022-10-02T14:20:00Z,27.3780,-94.4600,9.9,29.2,11111222
Murphy,ioos:station:wmo:42877:1,2022-10-02T14:30:00Z,27.3780,-94.4600,10.0,29.1,11111222
Murphy,ioos:station:wmo:42877:1,2022-10-02T14:40:00Z,27.3780,-94.4600,9.9,29.1,11111222
Murphy,ioos:station:wmo:42877:1,2022-10-02T14:50:00Z,27.3780,-94.4600,9.8,29.1,11111222
Murphy,ioos:station:wmo:42877:1,2022-10-02T15:00:00Z,27.3780,-94.4600,9.8,29.1,11111222
Murphy,ioos:station:wmo:42877:1,2022-10-02T15:10:00Z,27.3780,-94.4600,9.9,29.1,11111222
Murphy,ioos:station:wmo:42877:1,2022-10-02T15:20:00Z,27.3780,-94.4600,10.0,29.1,11111222
Murphy,ioos:station:wmo:42877:1,2022-10-02T15:30:00Z,27.3780,-94.4600,10.0,29.1,11111222
Murphy,ioos:station:wmo:42877:1,2022-10-02T15:40:00Z,27.3780,-94.4600,10.0,29.1,11111222
Murphy,ioos:station:wmo:42877:1,2022-10-02T15:50:00Z,27.3780,-94.4600,10.0,29.1,11111222
Murphy,ioos:station:wmo:42877:1,2022-10-02T16:00:00Z,27.3780,-94.4600,10.0,29.1,11111222
Murphy,ioos:station:wmo:42877:1,2022-10-02T16:10:00Z,27.3780,-94.4600,10.0,29.1,11111222
Murphy,ioos:station:wmo:42877:1,2022-10-02T16:20:00Z,27.3780,-94.4600,9.9,29.1,11111222
Murphy,ioos:station:wmo:42877:1,2022-10-02T16:30:00Z,27.3780,-94.4600,9.9,29.1,11111222
Murphy,ioos:station:wmo:42877:1,2022-10-02T16:40:00Z,27.3780,-94.4600,9.9,29.1,11111222
Murphy,ioos:station:wmo:42877:1,2022-10-02T16:50:00Z,27.3780,-94.4600,9.9,29.1,11111222
Murphy,ioos:station:wmo:42877:1,2022-10-02T17:00:00Z,27.3780,-94.4600,9.9,29.1,11111222
Murphy,ioos:station:wmo:42877:1,2022-10-02T17:10:00Z,27.3780,-94.4600,9.9,29.1,11111222
Murphy,ioos:station:wmo:42877:1,2022-10-02T17:20:00Z,27.3780,-94.4600,9.9,29.0,11111222
Murphy,ioos:station:wmo:42877:1,2022-10-02T17:30:00Z,27.3780,-94.4600,9.8,29.0,11111222
Murphy,ioos:station:wmo:42877:1,2022-10-02T17:40:00Z,27.3780,-94.4600,9.8,29.0,11111222
Murphy,ioos:station:wmo:42877:1,2022-10-02T17:50:00Z,27.3780,-94.4600,9.9,29.0,11111222
Murphy,ioos:station:wmo:42877:1,2022-10-02T18:00:00Z,27.3780,-94.4600,9.9,29.0,11111222
Murphy,ioos:station:wmo:42877:1,2022-10-02T18:10:00Z,27.3780,-94.4600,10.0,29.0,11111222
Murphy,ioos:station:wmo:42877:1,2022-10-02T18:20:00Z,27.3780,-94.4600,9.8,29.0,11111222
Murphy,ioos:station:wmo:42877:1,2022-10-02T18:30:00Z,27.3780,-94.4600,9.8,29.0,11111222
Murphy,ioos:station:wmo:42877:1,2022-10-02T18:41:00Z,27.3780,-94.4600,9.8,29.0,11111222
Murphy,ioos:station:wmo:42877:1,2022-10-02T18:51:00Z,27.3780,-94.4600,9.8,29.0,11111222
Murphy,ioos:station:wmo:42877:1,2022-10-02T19:01:00Z,27.3780,-94.4600,9.8,29.0,11111222
Murphy,ioos:station:wmo:42877:1,2022-10-02T19:11:00Z,27.3780,-94.4600,9.7,29.0,11111222
Murphy,ioos:station:wmo:42877:1,2022-10-02T19:21:00Z,27.3780,-94.4600,9.7,29.1,11111222
Murphy,ioos:station:wmo:42877:1,2022-10-02T19:31:00Z,27.3780,-94.4600,9.7,29.0,11111222
Murphy,ioos:station:wmo:42877:1,2022-10-02T19:41:00Z,27.3780,-94.4600,9.7,29.0,11111222
Murphy,ioos:station:wmo:42877:1,2022-10-02T19:51:00Z,27.3780,-94.4600,9.7,29.1,11111222
Murphy,ioos:station:wmo:42877:1,2022-10-02T20:01:00Z,27.3780,-94.4600,9.9,29.1,11111222
Murphy,ioos:station:wmo:42877:1,2022-10-02T20:11:00Z,27.3780,-94.4600,10.0,29.1,11111222
Murphy,ioos:station:wmo:42877:1,2022-10-02T20:21:00Z,27.3780,-94.4600,10.0,29.1,11111222
Murphy,ioos:station:wmo:42877:1,2022-10-02T20:31:00Z,27.3780,-94.4600,10.0,29.1,11111222
Murphy,ioos:station:wmo:42877:1,2022-10-02T20:41:00Z,27.3780,-94.4600,9.9,29.1,11111222
Murphy,ioos:station:wmo:42877:1,2022-10-02T20:51:00Z,27.3780,-94.4600,9.9,29.1,11111222
Murphy,ioos:station:wmo:42877:1,2022-10-02T21:01:00Z,27.3780,-94.4600,9.7,29.1,11111222
Murphy,ioos:station:wmo:42877:1,2022-10-02T21:11:00Z,27.3780,-94.4600,9.8,29.1,11111222
Murphy,ioos:station:wmo:42877:1,2022-10-02T21:21:00Z,27.3780,-94.4600,9.8,29.1,11111222
Murphy,ioos:station:wmo:42877:1,2022-10-02T21:31:00Z,27.3780,-94.4600,9.8,29.1,11111222
Murphy,ioos:station:wmo:42877:1,2022-10-02T21:41:00Z,27.3780,-94.4600,9.8,29.1,11111222
Murphy,ioos:station:wmo:42877:1,2022-10-02T21:51:00Z,27.3780,-94.4600,9.9,29.1,11111222
Murphy,ioos:station:wmo:42877:1,2022-10-02T22:01:00Z,27.3780,-94.4600,10.0,29.1,11111222
Murphy,ioos:station:wmo:42877:1,2022-10-02T22:11:00Z,27.3780,-94.4600,9.8,29.1,11111222
Murphy,ioos:station:wmo:42877:1,2022-10-02T22:21:00Z,27.3780,-94.4600,9.8,29.1,11111222
Murphy,ioos:station:wmo:42877:1,2022-10-02T22:31:00Z,27.3780,-94.4600,9.8,29.1,11111222
Murphy,ioos:station:wmo:42877:1,2022-10-02T22:41:00Z,27.3780,-94.4600,9.7,29.1,11111222
Murphy,ioos:station:wmo:42877:1,2022-10-02T22:51:00Z,27.3780,-94.4600,9.7,29.1,11111222
Murphy,ioos:station:wmo:42877:1,2022-10-02T23:01:00Z,27.3780,-94.4600,9.8,29.1,11111222
Murphy,ioos:station:wmo:42877:1,2022-10-02T23:11:00Z,27.3780,-94.4600,9.8,29.1,11111222
Murphy,ioos:station:wmo:42877:1,2022-10-02T23:21:00Z,27.3780,-94.4600,9.8,29.1,11111222
Murphy,ioos:station:wmo:42877:1,2022-10-02T23:31:00Z,27.3780,-94.4600,9.8,29.0,11111222
Murphy,ioos:station:wmo:42877:1,2022-10-02T23:41:00Z,27.3780,-94.4600,9.8,29.0,11111222
Murphy,ioos:station:wmo:42877:1,2022-10-02T23:51:00Z,27.3780,-94.4600,9.7,29.0,11111222
Murphy,ioos:station:wmo:42877:1,2022-10-03T00:01:00Z,27.3780,-94.4600,9.7,29.0,11111222
Murphy,ioos:station:wmo:42877:1,2022-10-03T00:11:00Z,27.3780,-94.4600,9.7,29.0,11111222
Murphy,ioos:station:wmo:42877:1,2022-10-03T00:21:00Z,27.3780,-94.4600,9.7,29.0,11111222
Murphy,ioos:station:wmo:42877:1,2022-10-03T00:31:00Z,27.3780,-94.4600,9.7,29.0,11111222
Murphy,ioos:station:wmo:42877:1,2022-10-03T00:41:00Z,27.3780,-94.4600,9.7,29.1,11111222
Murphy,ioos:station:wmo:42877:1,2022-10-03T00:51:00Z,27.3780,-94.4600,9.7,29.1,11111222
Murphy,ioos:station:wmo:42877:1,2022-10-03T01:01:00Z,27.3780,-94.4600,9.7,29.1,11111222
Murphy,ioos:station:wmo:42877:1,2022-10-03T01:11:00Z,27.3780,-94.4600,9.7,29.1,11111222
Murphy,ioos:station:wmo:42877:1,2022-10-03T01:21:00Z,27.3780,-94.4600,9.7,29.1,11111222
Murphy,ioos:station:wmo:42877:1,2022-10-03T01:31:00Z,27.3780,-94.4600,9.7,29.1,11111222
Murphy,ioos:station:wmo:42877:1,2022-10-03T01:41:00Z,27.3780,-94.4600,9.7,29.1,11111222
Murphy,ioos:station:wmo:42877:1,2022-10-03T01:51:00Z,27.3780,-94.4600,9.7,29.1,11111222
Murphy,ioos:station:wmo:42877:1,2022-10-03T02:02:00Z,27.3780,-94.4600,9.8,29.1,11111222
Murphy,ioos:station:wmo:42877:1,2022-10-03T02:12:00Z,27.3780,-94.4600,9.8,29.0,11111222
Murphy,ioos:station:wmo:42877:1,2022-10-03T02:22:00Z,27.3780,-94.4600,9.8,29.0,11111222
Murphy,ioos:station:wmo:42877:1,2022-10-03T02:32:00Z,27.3780,-94.4600,9.8,29.0,11111222
Murphy,ioos:station:wmo:42877:1,2022-10-03T02:42:00Z,27.3780,-94.4600,9.8,29.0,11111222
Murphy,ioos:station:wmo:42877:1,2022-10-03T02:52:00Z,27.3780,-94.4600,9.8,29.0,11111222
Murphy,ioos:station:wmo:42877:1,2022-10-03T03:02:00Z,27.3780,-94.4600,9.8,29.0,11111222
Murphy,ioos:station:wmo:42877:1,2022-10-03T03:12:00Z,27.3780,-94.4600,9.8,29.0,11111222
Murphy,ioos:station:wmo:42877:1,2022-10-03T03:22:00Z,27.3780,-94.4600,9.9,29.0,11111222
Murphy,ioos:station:wmo:42877:1,2022-10-03T03:32:00Z,27.3780,-94.4600,9.8,29.0,11111222
Murphy,ioos:station:wmo:42877:1,2022-10-03T03:42:00Z,27.3780,-94.4600,9.7,29.0,11111222
Murphy,ioos:station:wmo:42877:1,2022-10-03T03:52:00Z,27.3780,-94.4600,9.7,29.0,11111222
Murphy,ioos:station:wmo:42877:1,2022-10-03T04:02:00Z,27.3780,-94.4600,9.7,29.0,11111222
Murphy,ioos:station:wmo:42877:1,2022-10-03T04:12:00Z,27.3780,-94.4600,9.7,28.9,11111222
Murphy,ioos:station:wmo:42877:1,2022-10-03T04:22:00Z,27.3780,-94.4600,9.7,28.9,11111222
Murphy,ioos:station:wmo:42877:1,2022-10-03T04:32:00Z,27.3780,-94.4600,9.7,28.9,11111222
Murphy,ioos:station:wmo:42877:1,2022-10-03T04:42:00Z,27.3780,-94.4600,9.7,28.9,11111222
Murphy,ioos:station:wmo:42877:1,2022-10-03T04:52:00Z,27.3780,-94.4600,9.8,28.9,11111222
Murphy,ioos:station:wmo:42877:1,2022-10-03T05:02:00Z,27.3780,-94.4600,9.8,28.9,11111222
Murphy,ioos:station:wmo:42877:1,2022-10-03T05:12:00Z,27.3780,-94.4600,9.8,28.9,11111222
Murphy,ioos:station:wmo:42877:1,2022-10-03T05:22:00Z,27.3780,-94.4600,9.8,28.9,11111222
Murphy,ioos:station:wmo:42877:1,2022-10-03T05:32:00Z,27.3780,-94.4600,9.8,29.0,11111222
Murphy,ioos:station:wmo:42877:1,2022-10-03T05:42:00Z,27.3780,-94.4600,9.8,29.0,11111222
Murphy,ioos:station:wmo:42877:1,2022-10-03T05:52:00Z,27.3780,-94.4600,9.8,29.0,11111222
Murphy,ioos:station:wmo:42877:1,2022-10-03T06:02:00Z,27.3780,-94.4600,9.8,29.0,11111222
Murphy,ioos:station:wmo:42877:1,2022-10-03T06:12:00Z,27.3780,-94.4600,10.0,29.0,11111222
Murphy,ioos:station:wmo:42877:1,2022-10-03T06:22:00Z,27.3780,-94.4600,9.9,29.0,11111222
Murphy,ioos:station:wmo:42877:1,2022-10-03T06:32:00Z,27.3780,-94.4600,9.9,29.0,11111222
Murphy,ioos:station:wmo:42877:1,2022-10-03T06:42:00Z,27.3780,-94.4600,9.8,29.0,11111222
Murphy,ioos:station:wmo:42877:1,2022-10-03T06:52:00Z,27.3780,-94.4600,9.5,29.0,11111222
Murphy,ioos:station:wmo:42877:1,2022-10-03T07:02:00Z,27.3780,-94.4600,9.3,29.0,11111222